Location: Unspecified
(0.0000°N, 0.0000°E)
Time: 09:00:45
(UTC+00:00)

CHEOPS - Visible Passes

Search period start: 18 May 2026 00:00
Search period end: 28 May 2026 00:00
Orbit: 680 x 694 km, 98.2° (Epoch: 18 May)

Date Brightness Start Highest point End Pass type
(mag) Time Alt. Az. Time Alt. Az. Time Alt. Az.
19 May ? 18:44:20 10° NNW 18:47:56 23° WNW 18:51:33 10° SW visible
20 May ? 05:25:36 10° SE 05:29:44 31° ENE 05:33:52 10° NNE visible
21 May ? 18:22:02 10° N 18:26:25 43° WNW 18:30:49 10° SSW visible
22 May ? 05:05:20 10° ESE 05:08:14 16° ENE 05:11:07 10° NE visible
22 May ? 19:01:55 10° NW 19:04:13 14° WNW 19:06:33 10° WSW visible
24 May ? 18:38:52 10° NNW 18:42:43 26° WNW 18:46:35 10° SW visible
25 May ? 05:20:36 10° SE 05:24:32 26° ENE 05:28:26 10° NNE visible
26 May ? 18:16:42 10° N 18:21:11 52° WNW 18:25:41 10° SSW visible
27 May ? 05:00:40 10° ESE 05:03:01 14° ENE 05:05:22 10° NE visible
27 May ? 18:56:10 10° NW 18:58:59 16° WNW 19:01:51 10° WSW visible
